sat.trackr.live / text

‹ back to catalog

STARLINK-3998

NORAD 52610 · 2022-052N

PAYLOAD ACTIVE UNKNOWN

§ Identity

Operator
Country
US
Launch date
2022-05-14
Launch site
AFETR
Launch vehicle
Mass (kg)
RCS (m²)

Purposes: comms

External: N2YO · Heavens-Above · Gunter

§ Orbital elements

Epoch: 2026-05-25T03:03:50.249088Z

Period
95.44 min
Inclination
53.2125°
Eccentricity
0.0001564
Mean motion
15.08864613 rev/d
Perigee alt
538.6 km
Apogee alt
540.8 km
Semi-major
6,917.8 km
B*
-3.9068e-4
RAAN
300.9742°
Arg perigee
92.1882°
Mean anomaly
267.9289°
Rev number
22,232

§ Raw data

STARLINK-39981 52610U 22052N   26145.12766492 -.00006505  00000+0 -39068-3 0  99962 52610  53.2125 300.9742 0001564  92.1882 267.9289 15.08864613222321

JSON: /api/v1/satellites/52610 · /tle

For live sub-satellite position, see the globe view (requires WebGL).

§ Visibility from observer

Set your observer location to see the next 7 days of passes ≥ 10°. The values pass through the URL so the page stays shareable.

No JS? Fill the form by hand. The geolocation button needs JavaScript.